START_TIME,STEP,MOV.,E45,t_acc.,ALAR?,t_acc.,A12,t_acc.,A24,t_acc.
1981-08-24 00:00:27.400 ,6,0,0.,4.8,144.,4.8,0.,4.8,0.,4.8
1981-08-24 00:00:32.200 ,6,0,2.,4.8,168.,4.8,0.,4.8,0.,4.8
1981-08-24 00:00:37.000 ,6,0,0.,4.8,164.,4.8,0.,4.8,0.,4.8
1981-08-24 00:00:41.800 ,6,0,0.,4.8,184.,4.8,0.,4.8,0.,4.8
1981-08-24 00:00:46.600 ,6,0,0.,4.8,168.,4.8,0.,4.8,0.,4.8
1981-08-24 00:00:51.400 ,7,0,1.,4.8,156.,4.8,0.,4.8,0.,4.8
1981-08-24 00:00:56.200 ,7,0,0.,4.8,152.,4.8,0.,4.8,0.,4.8
1981-08-24 00:01:01.000 ,7,0,1.,4.8,164.,4.8,0.,4.8,0.,4.8
1981-08-24 00:01:05.800 ,7,0,2.,4.8,160.,4.8,0.,4.8,0.,4.8
1981-08-24 00:01:10.600 ,7,0,2.,4.8,180.,4.8,0.,4.8,0.,4.8
1981-08-24 00:01:15.400 ,7,0,1.,4.8,152.,4.8,0.,4.8,0.,4.8
1981-08-24 00:01:20.200 ,7,0,0.,4.8,156.,4.8,0.,4.8,0.,4.8
1981-08-24 00:01:25.000 ,7,0,2.,4.8,160.,4.8,0.,4.8,0.,4.8
1981-08-24 00:01:29.800 ,7,0,1.,4.8,160.,4.8,0.,4.8,0.,4.8
1981-08-24 00:01:34.600 ,7,0,0.,4.8,140.,4.8,0.,4.8,0.,4.8
1981-08-24 00:01:39.400 ,7,0,0.,4.8,136.,4.8,0.,4.8,0.,4.8
1981-08-24 00:01:44.200 ,7,0,1.,4.8,156.,4.8,1.,4.8,0.,4.8
1981-08-24 00:01:49.000 ,7,0,2.,4.8,148.,4.8,0.,4.8,0.,4.8
1981-08-24 00:01:53.800 ,7,0,1.,4.8,176.,4.8,0.,4.8,0.,4.8
1981-08-24 00:01:58.600 ,7,0,0.,4.8,164.,4.8,0.,4.8,0.,4.8
1981-08-24 00:02:03.400 ,6,0,2.,4.8,136.,4.8,0.,4.8,0.,4.8
1981-08-24 00:02:08.200 ,6,0,1.,4.8,180.,4.8,0.,4.8,0.,4.8
1981-08-24 00:02:13.000 ,6,0,4.,4.8,168.,4.8,0.,4.8,0.,4.8
1981-08-24 00:02:17.800 ,6,0,0.,4.8,164.,4.8,0.,4.8,0.,4.8
1981-08-24 00:02:22.600 ,6,0,0.,4.8,184.,4.8,0.,4.8,0.,4.8
1981-08-24 00:02:27.400 ,5,0,0.,4.8,196.,4.8,0.,4.8,0.,4.8
1981-08-24 00:02:32.200 ,5,0,1.,4.8,156.,4.8,0.,4.8,0.,4.8
1981-08-24 00:02:37.000 ,5,0,1.,4.8,164.,4.8,0.,4.8,0.,4.8
1981-08-24 00:02:41.800 ,5,0,0.,4.8,160.,4.8,0.,4.8,0.,4.8
1981-08-24 00:02:46.600 ,5,0,2.,4.8,176.,4.8,0.,4.8,0.,4.8
1981-08-24 00:02:51.400 ,4,0,0.,4.8,140.,4.8,0.,4.8,0.,4.8
1981-08-24 00:02:56.200 ,4,0,0.,4.8,160.,4.8,0.,4.8,0.,4.8
1981-08-24 00:03:01.000 ,4,0,3.,4.8,168.,4.8,0.,4.8,0.,4.8
1981-08-24 00:03:05.800 ,4,0,0.,4.8,168.,4.8,0.,4.8,0.,4.8
1981-08-24 00:03:10.600 ,4,0,1.,4.8,140.,4.8,0.,4.8,0.,4.8
1981-08-24 00:03:15.400 ,3,0,1.,4.8,156.,4.8,0.,4.8,0.,4.8
1981-08-24 00:03:20.200 ,3,0,0.,4.8,160.,4.8,0.,4.8,0.,4.8
1981-08-24 00:03:25.000 ,3,0,1.,4.8,172.,4.8,0.,4.8,0.,4.8
1981-08-24 00:03:29.800 ,3,0,0.,4.8,152.,4.8,0.,4.8,0.,4.8
1981-08-24 00:03:34.600 ,3,0,1.,4.8,168.,4.8,0.,4.8,0.,4.8
1981-08-24 00:03:39.400 ,2,0,0.,4.8,172.,4.8,0.,4.8,0.,4.8
1981-08-24 00:03:44.200 ,2,0,1.,4.8,152.,4.8,0.,4.8,0.,4.8
1981-08-24 00:03:49.000 ,2,0,0.,4.8,152.,4.8,0.,4.8,0.,4.8
1981-08-24 00:03:53.800 ,2,0,0.,4.8,140.,4.8,0.,4.8,0.,4.8
1981-08-24 00:03:58.600 ,2,0,1.,4.8,176.,4.8,0.,4.8,0.,4.8
1981-08-24 00:04:03.400 ,1,0,3.,4.8,164.,4.8,0.,4.8,0.,4.8
1981-08-24 00:04:08.200 ,1,0,0.,4.8,144.,4.8,0.,4.8,0.,4.8
1981-08-24 00:04:13.000 ,1,0,1.,4.8,152.,4.8,0.,4.8,0.,4.8
1981-08-24 00:04:17.800 ,1,0,0.,4.8,156.,4.8,0.,4.8,0.,4.8
1981-08-24 00:04:22.600 ,1,0,1.,4.8,140.,4.8,0.,4.8,0.,4.8
1981-08-24 00:04:27.400 ,0,0,0.,4.8,152.,4.8,0.,4.8,0.,4.8
1981-08-24 00:04:32.200 ,0,0,0.,4.8,152.,4.8,0.,4.8,0.,4.8
1981-08-24 00:04:37.000 ,0,0,1.,4.8,172.,4.8,0.,4.8,0.,4.8
1981-08-24 00:04:41.800 ,0,0,1.,4.8,148.,4.8,0.,4.8,0.,4.8
1981-08-24 00:04:46.600 ,0,0,2.,4.8,152.,4.8,0.,4.8,0.,4.8
1981-08-24 00:04:51.400 ,0,0,1.,4.8,168.,4.8,0.,4.8,0.,4.8
1981-08-24 00:04:56.200 ,0,0,0.,4.8,140.,4.8,0.,4.8,0.,4.8
1981-08-24 00:05:01.000 ,0,0,0.,4.8,140.,4.8,0.,4.8,0.,4.8
1981-08-24 00:05:05.800 ,0,0,0.,4.8,168.,4.8,0.,4.8,0.,4.8
1981-08-24 00:05:10.600 ,0,0,0.,4.8,148.,4.8,0.,4.8,0.,4.8
1981-08-24 00:05:15.400 ,1,0,0.,4.8,144.,4.8,0.,4.8,0.,4.8
1981-08-24 00:05:20.200 ,1,0,1.,4.8,156.,4.8,0.,4.8,0.,4.8
1981-08-24 00:05:25.000 ,1,0,0.,4.8,176.,4.8,0.,4.8,0.,4.8
1981-08-24 00:05:29.800 ,1,0,1.,4.8,176.,4.8,0.,4.8,0.,4.8
1981-08-24 00:05:34.600 ,1,0,1.,4.8,160.,4.8,0.,4.8,0.,4.8
1981-08-24 00:05:39.400 ,2,0,1.,4.8,152.,4.8,0.,4.8,0.,4.8
1981-08-24 00:05:44.200 ,2,0,0.,4.8,164.,4.8,0.,4.8,0.,4.8
1981-08-24 00:05:49.000 ,2,0,0.,4.8,172.,4.8,0.,4.8,0.,4.8
1981-08-24 00:05:53.800 ,2,0,1.,4.8,140.,4.8,0.,4.8,0.,4.8
1981-08-24 00:05:58.600 ,2,0,0.,4.8,136.,4.8,0.,4.8,0.,4.8
1981-08-24 00:06:03.400 ,3,0,1.,4.8,156.,4.8,0.,4.8,0.,4.8
1981-08-24 00:06:08.200 ,3,0,1.,4.8,168.,4.8,0.,4.8,0.,4.8
1981-08-24 00:06:13.000 ,3,0,0.,4.8,156.,4.8,0.,4.8,0.,4.8
1981-08-24 00:06:17.800 ,3,0,1.,4.8,144.,4.8,0.,4.8,0.,4.8
1981-08-24 00:06:22.600 ,3,0,0.,4.8,164.,4.8,0.,4.8,0.,4.8
1981-08-24 00:06:27.400 ,4,0,2.,4.8,184.,4.8,0.,4.8,0.,4.8
1981-08-24 00:06:32.200 ,4,0,0.,4.8,168.,4.8,0.,4.8,0.,4.8
1981-08-24 00:06:37.000 ,4,0,3.,4.8,152.,4.8,0.,4.8,0.,4.8
1981-08-24 00:06:41.800 ,4,0,2.,4.8,156.,4.8,0.,4.8,0.,4.8
1981-08-24 00:06:46.600 ,4,0,1.,4.8,144.,4.8,0.,4.8,0.,4.8
1981-08-24 00:06:51.400 ,5,0,1.,4.8,164.,4.8,0.,4.8,0.,4.8
1981-08-24 00:06:56.200 ,5,0,0.,4.8,144.,4.8,0.,4.8,0.,4.8
1981-08-24 00:07:01.000 ,5,0,1.,4.8,152.,4.8,1.,4.8,0.,4.8
1981-08-24 00:07:05.800 ,5,0,0.,4.8,184.,4.8,0.,4.8,0.,4.8
1981-08-24 00:07:10.600 ,5,0,4.,4.8,156.,4.8,0.,4.8,0.,4.8
1981-08-24 00:07:15.400 ,6,0,1.,4.8,164.,4.8,0.,4.8,0.,4.8
1981-08-24 00:07:20.200 ,6,0,1.,4.8,132.,4.8,0.,4.8,0.,4.8
1981-08-24 00:07:25.000 ,6,0,2.,4.8,176.,4.8,0.,4.8,0.,4.8
1981-08-24 00:07:29.800 ,6,0,0.,4.8,156.,4.8,0.,4.8,0.,4.8
1981-08-24 00:07:34.600 ,6,0,0.,4.8,180.,4.8,0.,4.8,0.,4.8
1981-08-24 00:07:39.400 ,7,0,1.,4.8,160.,4.8,0.,4.8,0.,4.8
1981-08-24 00:07:44.200 ,7,0,1.,4.8,148.,4.8,0.,4.8,0.,4.8
1981-08-24 00:07:49.000 ,7,0,1.,4.8,180.,4.8,0.,4.8,0.,4.8
1981-08-24 00:07:53.800 ,7,0,2.,4.8,152.,4.8,0.,4.8,0.,4.8
1981-08-24 00:07:58.600 ,7,0,0.,4.8,172.,4.8,0.,4.8,0.,4.8
1981-08-24 00:08:03.400 ,7,0,0.,4.8,160.,4.8,0.,4.8,0.,4.8
1981-08-24 00:08:08.200 ,7,0,1.,4.8,176.,4.8,0.,4.8,0.,4.8
1981-08-24 00:08:13.000 ,7,0,2.,4.8,172.,4.8,0.,4.8,0.,4.8
1981-08-24 00:08:17.800 ,7,0,0.,4.8,132.,4.8,0.,4.8,0.,4.8
1981-08-24 00:08:22.600 ,7,0,2.,4.8,172.,4.8,0.,4.8,0.,4.8
1981-08-24 00:08:27.400 ,7,0,0.,4.8,180.,4.8,0.,4.8,0.,4.8
1981-08-24 00:08:32.200 ,7,0,0.,4.8,172.,4.8,0.,4.8,0.,4.8
1981-08-24 00:08:37.000 ,7,0,1.,4.8,176.,4.8,0.,4.8,0.,4.8
1981-08-24 00:08:41.800 ,7,0,0.,4.8,180.,4.8,0.,4.8,0.,4.8
1981-08-24 00:08:46.600 ,7,0,0.,4.8,144.,4.8,0.,4.8,0.,4.8
1981-08-24 00:08:51.400 ,6,0,1.,4.8,140.,4.8,0.,4.8,0.,4.8
1981-08-24 00:08:56.200 ,6,0,1.,4.8,160.,4.8,0.,4.8,0.,4.8
1981-08-24 00:09:01.000 ,6,0,1.,4.8,164.,4.8,0.,4.8,0.,4.8
1981-08-24 00:09:05.800 ,6,0,1.,4.8,144.,4.8,0.,4.8,0.,4.8
1981-08-24 00:09:10.600 ,6,0,1.,4.8,180.,4.8,0.,4.8,0.,4.8
1981-08-24 00:09:15.400 ,6,0,0.,4.8,172.,4.8,0.,4.8,0.,4.8
1981-08-24 00:09:20.200 ,6,0,0.,4.8,156.,4.8,0.,4.8,0.,4.8
1981-08-24 00:09:25.000 ,6,0,2.,4.8,168.,4.8,0.,4.8,0.,4.8
1981-08-24 00:09:29.800 ,6,0,2.,4.8,172.,4.8,0.,4.8,0.,4.8
1981-08-24 00:09:34.600 ,6,0,0.,4.8,168.,4.8,0.,4.8,0.,4.8
1981-08-24 00:09:39.400 ,0,0,0.,4.8,152.,4.8,0.,4.8,0.,4.8
1981-08-24 00:09:44.200 ,0,0,0.,4.8,156.,4.8,0.,4.8,0.,4.8
1981-08-24 00:09:49.000 ,0,0,0.,4.8,144.,4.8,0.,4.8,0.,4.8
1981-08-24 00:09:53.800 ,0,0,0.,4.8,156.,4.8,0.,4.8,0.,4.8
1981-08-24 00:09:58.600 ,0,0,,0,,0,,0,,0
1981-08-24 00:10:03.400 ,0,0,,0,,0,,0,,0
1981-08-24 00:10:08.200 ,0,0,,0,,0,,0,,0
1981-08-24 00:10:13.000 ,0,0,,0,,0,,0,,0
1981-08-24 00:10:17.800 ,0,0,,0,,0,,0,,0
1981-08-24 00:10:22.600 ,0,0,,0,,0,,0,,0
1981-08-24 00:10:03.400 ,0,0,,0,,0,,0,,0
1981-08-24 00:10:08.200 ,0,0,,0,,0,,0,,0
1981-08-24 00:10:13.000 ,0,0,,0,,0,,0,,0
1981-08-24 00:10:17.800 ,0,0,,0,,0,,0,,0
1981-08-24 00:10:22.600 ,0,0,,0,,0,,0,,0
1981-08-24 00:10:03.400 ,0,0,,0,,0,,0,,0
1981-08-24 00:10:08.200 ,0,0,,0,,0,,0,,0
1981-08-24 00:10:13.000 ,0,0,,0,,0,,0,,0
1981-08-24 00:10:17.800 ,0,0,,0,,0,,0,,0
1981-08-24 00:10:22.600 ,0,0,,0,,0,,0,,0
1981-08-24 00:10:03.400 ,5,0,0.,4.8,156.,4.8,0.,4.8,0.,4.8
1981-08-24 00:10:08.200 ,5,0,0.,4.8,176.,4.8,0.,4.8,0.,4.8
1981-08-24 00:10:13.000 ,5,0,1.,4.8,172.,4.8,0.,4.8,0.,4.8
1981-08-24 00:10:17.800 ,5,0,1.,4.8,152.,4.8,0.,4.8,0.,4.8
1981-08-24 00:10:22.600 ,5,0,2.,4.8,136.,4.8,0.,4.8,0.,4.8
1981-08-24 00:10:27.400 ,4,0,0.,4.8,156.,4.8,0.,4.8,0.,4.8
1981-08-24 00:10:32.200 ,4,0,0.,4.8,140.,4.8,0.,4.8,0.,4.8
1981-08-24 00:10:37.000 ,4,0,0.,4.8,144.,4.8,0.,4.8,0.,4.8
1981-08-24 00:10:41.800 ,4,0,1.,4.8,164.,4.8,0.,4.8,0.,4.8
1981-08-24 00:10:46.600 ,4,0,0.,4.8,140.,4.8,0.,4.8,0.,4.8
1981-08-24 00:10:51.400 ,4,0,1.,4.8,168.,4.8,0.,4.8,0.,4.8
1981-08-24 00:10:56.200 ,4,0,0.,4.8,176.,4.8,0.,4.8,0.,4.8
1981-08-24 00:11:01.000 ,4,0,1.,4.8,144.,4.8,0.,4.8,0.,4.8
1981-08-24 00:11:05.800 ,4,0,1.,4.8,148.,4.8,0.,4.8,0.,4.8
1981-08-24 00:11:10.600 ,4,0,0.,4.8,152.,4.8,0.,4.8,0.,4.8
1981-08-24 00:11:15.400 ,3,0,0.,4.8,124.,4.8,0.,4.8,0.,4.8
1981-08-24 00:11:20.200 ,3,0,0.,4.8,184.,4.8,0.,4.8,0.,4.8
1981-08-24 00:11:25.000 ,3,0,0.,4.8,156.,4.8,0.,4.8,0.,4.8
1981-08-24 00:11:29.800 ,3,0,1.,4.8,152.,4.8,0.,4.8,0.,4.8
1981-08-24 00:11:34.600 ,3,0,1.,4.8,144.,4.8,0.,4.8,0.,4.8
1981-08-24 00:11:39.400 ,3,0,3.,4.8,152.,4.8,0.,4.8,0.,4.8
1981-08-24 00:11:44.200 ,3,0,1.,4.8,148.,4.8,0.,4.8,0.,4.8
1981-08-24 00:11:49.000 ,3,0,1.,4.8,164.,4.8,0.,4.8,0.,4.8
1981-08-24 00:11:53.800 ,3,0,1.,4.8,144.,4.8,0.,4.8,0.,4.8
1981-08-24 00:11:58.600 ,3,0,0.,4.8,156.,4.8,0.,4.8,0.,4.8
1981-08-24 00:12:03.400 ,2,0,0.,4.8,184.,4.8,0.,4.8,0.,4.8
1981-08-24 00:12:08.200 ,2,0,0.,4.8,188.,4.8,0.,4.8,0.,4.8
1981-08-24 00:12:13.000 ,2,0,2.,4.8,144.,4.8,0.,4.8,0.,4.8
1981-08-24 00:12:17.800 ,2,0,2.,4.8,164.,4.8,0.,4.8,0.,4.8
1981-08-24 00:12:22.600 ,2,0,0.,4.8,128.,4.8,0.,4.8,0.,4.8
1981-08-24 00:12:27.400 ,2,0,0.,4.8,160.,4.8,0.,4.8,0.,4.8
1981-08-24 00:12:32.200 ,2,0,1.,4.8,148.,4.8,0.,4.8,0.,4.8
1981-08-24 00:12:37.000 ,2,0,1.,4.8,132.,4.8,0.,4.8,0.,4.8
1981-08-24 00:12:41.800 ,2,0,0.,4.8,164.,4.8,0.,4.8,0.,4.8
1981-08-24 00:12:46.600 ,2,0,0.,4.8,160.,4.8,0.,4.8,0.,4.8
1981-08-24 00:12:51.400 ,1,0,0.,4.8,156.,4.8,0.,4.8,0.,4.8
1981-08-24 00:12:56.200 ,1,0,4.,4.8,144.,4.8,0.,4.8,0.,4.8
1981-08-24 00:13:01.000 ,1,0,0.,4.8,132.,4.8,0.,4.8,0.,4.8
1981-08-24 00:13:05.800 ,1,0,1.,4.8,160.,4.8,0.,4.8,0.,4.8
1981-08-24 00:13:10.600 ,1,0,1.,4.8,160.,4.8,0.,4.8,0.,4.8
1981-08-24 00:13:15.400 ,1,0,2.,4.8,152.,4.8,0.,4.8,0.,4.8
1981-08-24 00:13:20.200 ,1,0,1.,4.8,172.,4.8,0.,4.8,0.,4.8
1981-08-24 00:13:25.000 ,1,0,0.,4.8,168.,4.8,0.,4.8,0.,4.8
1981-08-24 00:13:29.800 ,1,0,0.,4.8,152.,4.8,0.,4.8,0.,4.8
1981-08-24 00:13:34.600 ,1,0,1.,4.8,148.,4.8,0.,4.8,0.,4.8
1981-08-24 00:14:03.400 ,0,0,2.,4.8,164.,4.8,0.,4.8,0.,4.8
1981-08-24 00:14:08.200 ,0,0,1.,4.8,160.,4.8,0.,4.8,0.,4.8
1981-08-24 00:14:13.000 ,0,0,1.,4.8,180.,4.8,0.,4.8,0.,4.8
1981-08-24 00:14:17.800 ,0,0,0.,4.8,156.,4.8,0.,4.8,0.,4.8
1981-08-24 00:14:22.600 ,0,0,1.,4.8,160.,4.8,0.,4.8,0.,4.8
1981-08-24 00:14:27.400 ,0,0,2.,4.8,148.,4.8,0.,4.8,0.,4.8
1981-08-24 00:14:32.200 ,0,0,1.,4.8,148.,4.8,0.,4.8,0.,4.8
1981-08-24 00:14:37.000 ,0,0,1.,4.8,160.,4.8,0.,4.8,0.,4.8
1981-08-24 00:14:41.800 ,0,0,0.,4.8,144.,4.8,0.,4.8,0.,4.8
1981-08-24 00:14:46.600 ,0,0,2.,4.8,144.,4.8,0.,4.8,0.,4.8
1981-08-24 00:14:51.400 ,0,0,3.,4.8,144.,4.8,0.,4.8,0.,4.8
1981-08-24 00:14:56.200 ,0,0,0.,4.8,156.,4.8,0.,4.8,0.,4.8
1981-08-24 00:15:01.000 ,0,0,0.,4.8,172.,4.8,0.,4.8,0.,4.8
1981-08-24 00:15:05.800 ,0,0,2.,4.8,144.,4.8,0.,4.8,0.,4.8
1981-08-24 00:15:10.600 ,0,0,1.,4.8,136.,4.8,0.,4.8,0.,4.8
1981-08-24 00:15:15.400 ,1,0,1.,4.8,168.,4.8,0.,4.8,0.,4.8
1981-08-24 00:15:20.200 ,1,0,0.,4.8,156.,4.8,0.,4.8,0.,4.8
1981-08-24 00:15:25.000 ,1,0,1.,4.8,176.,4.8,0.,4.8,0.,4.8
1981-08-24 00:15:29.800 ,1,0,0.,4.8,160.,4.8,0.,4.8,0.,4.8
1981-08-24 00:15:34.600 ,1,0,1.,4.8,164.,4.8,0.,4.8,0.,4.8
1981-08-24 00:15:39.400 ,1,0,0.,4.8,152.,4.8,0.,4.8,0.,4.8
1981-08-24 00:15:44.200 ,1,0,0.,4.8,148.,4.8,0.,4.8,0.,4.8
1981-08-24 00:15:49.000 ,1,0,2.,4.8,136.,4.8,0.,4.8,0.,4.8
1981-08-24 00:15:53.800 ,1,0,1.,4.8,160.,4.8,0.,4.8,0.,4.8
1981-08-24 00:15:58.600 ,1,0,1.,4.8,132.,4.8,0.,4.8,0.,4.8
1981-08-24 00:16:03.400 ,2,0,1.,4.8,188.,4.8,0.,4.8,0.,4.8
1981-08-24 00:16:08.200 ,2,0,0.,4.8,160.,4.8,0.,4.8,0.,4.8
1981-08-24 00:16:13.000 ,2,0,0.,4.8,168.,4.8,0.,4.8,0.,4.8
1981-08-24 00:16:17.800 ,2,0,0.,4.8,164.,4.8,0.,4.8,0.,4.8
1981-08-24 00:16:22.600 ,2,0,0.,4.8,160.,4.8,0.,4.8,0.,4.8
1981-08-24 00:16:27.400 ,2,0,0.,4.8,136.,4.8,0.,4.8,0.,4.8
1981-08-24 00:16:32.200 ,2,0,2.,4.8,152.,4.8,0.,4.8,0.,4.8
1981-08-24 00:16:37.000 ,2,0,2.,4.8,140.,4.8,0.,4.8,0.,4.8
1981-08-24 00:16:41.800 ,2,0,0.,4.8,176.,4.8,0.,4.8,0.,4.8
1981-08-24 00:16:46.600 ,2,0,1.,4.8,168.,4.8,0.,4.8,0.,4.8
1981-08-24 00:16:51.400 ,3,0,1.,4.8,180.,4.8,0.,4.8,0.,4.8
1981-08-24 00:16:56.200 ,3,0,1.,4.8,152.,4.8,0.,4.8,0.,4.8
1981-08-24 00:17:01.000 ,3,0,0.,4.8,160.,4.8,0.,4.8,0.,4.8
1981-08-24 00:17:05.800 ,3,0,1.,4.8,180.,4.8,0.,4.8,0.,4.8
1981-08-24 00:17:10.600 ,3,0,0.,4.8,172.,4.8,0.,4.8,0.,4.8
1981-08-24 00:17:15.400 ,3,0,0.,4.8,160.,4.8,0.,4.8,0.,4.8
1981-08-24 00:17:20.200 ,3,0,2.,4.8,140.,4.8,0.,4.8,0.,4.8
1981-08-24 00:17:25.000 ,3,0,3.,4.8,172.,4.8,0.,4.8,0.,4.8
1981-08-24 00:17:29.800 ,3,0,3.,4.8,136.,4.8,0.,4.8,0.,4.8
1981-08-24 00:17:34.600 ,3,0,1.,4.8,144.,4.8,0.,4.8,0.,4.8
1981-08-24 00:17:39.400 ,4,0,0.,4.8,164.,4.8,0.,4.8,0.,4.8
1981-08-24 00:17:44.200 ,4,0,0.,4.8,148.,4.8,0.,4.8,0.,4.8
1981-08-24 00:17:49.000 ,4,0,1.,4.8,168.,4.8,0.,4.8,0.,4.8
1981-08-24 00:17:53.800 ,4,0,0.,4.8,164.,4.8,0.,4.8,0.,4.8
1981-08-24 00:17:58.600 ,4,0,2.,4.8,152.,4.8,0.,4.8,0.,4.8
1981-08-24 00:18:03.400 ,4,0,1.,4.8,172.,4.8,0.,4.8,0.,4.8
1981-08-24 00:18:08.200 ,4,0,0.,4.8,172.,4.8,0.,4.8,0.,4.8
1981-08-24 00:18:13.000 ,4,0,2.,4.8,160.,4.8,0.,4.8,0.,4.8
1981-08-24 00:18:17.800 ,4,0,1.,4.8,144.,4.8,0.,4.8,0.,4.8
1981-08-24 00:18:22.600 ,4,0,0.,4.8,156.,4.8,0.,4.8,0.,4.8
1981-08-24 00:18:27.400 ,5,0,0.,4.8,160.,4.8,0.,4.8,0.,4.8
1981-08-24 00:18:32.200 ,5,0,2.,4.8,184.,4.8,0.,4.8,0.,4.8
1981-08-24 00:18:37.000 ,5,0,1.,4.8,144.,4.8,0.,4.8,0.,4.8
1981-08-24 00:18:41.800 ,5,0,2.,4.8,168.,4.8,0.,4.8,0.,4.8
1981-08-24 00:18:46.600 ,5,0,1.,4.8,156.,4.8,0.,4.8,0.,4.8
1981-08-24 00:18:51.400 ,5,0,1.,4.8,152.,4.8,0.,4.8,0.,4.8
1981-08-24 00:18:56.200 ,5,0,3.,4.8,144.,4.8,0.,4.8,0.,4.8
1981-08-24 00:19:01.000 ,5,0,1.,4.8,140.,4.8,0.,4.8,0.,4.8
1981-08-24 00:19:05.800 ,5,0,1.,4.8,156.,4.8,0.,4.8,0.,4.8
1981-08-24 00:19:10.600 ,5,0,0.,4.8,176.,4.8,0.,4.8,0.,4.8
1981-08-24 00:19:15.400 ,6,0,0.,4.8,180.,4.8,0.,4.8,0.,4.8
1981-08-24 00:19:20.200 ,6,0,0.,4.8,164.,4.8,0.,4.8,0.,4.8
1981-08-24 00:19:25.000 ,6,0,1.,4.8,160.,4.8,0.,4.8,0.,4.8
1981-08-24 00:19:29.800 ,6,0,1.,4.8,152.,4.8,0.,4.8,0.,4.8
1981-08-24 00:19:34.600 ,6,0,1.,4.8,128.,4.8,0.,4.8,0.,4.8
1981-08-24 00:19:39.400 ,6,0,1.,4.8,168.,4.8,0.,4.8,0.,4.8
1981-08-24 00:19:44.200 ,6,0,1.,4.8,144.,4.8,0.,4.8,0.,4.8
1981-08-24 00:19:49.000 ,6,0,1.,4.8,156.,4.8,0.,4.8,0.,4.8
1981-08-24 00:19:53.800 ,6,0,0.,4.8,144.,4.8,0.,4.8,0.,4.8
1981-08-24 00:19:58.600 ,6,0,0.,4.8,160.,4.8,0.,4.8,0.,4.8
1981-08-24 00:20:03.400 ,7,0,2.,4.8,176.,4.8,0.,4.8,0.,4.8
1981-08-24 00:20:08.200 ,7,0,2.,4.8,156.,4.8,0.,4.8,0.,4.8
1981-08-24 00:20:13.000 ,7,0,2.,4.8,192.,4.8,0.,4.8,0.,4.8
1981-08-24 00:20:17.800 ,7,0,0.,4.8,156.,4.8,0.,4.8,0.,4.8
1981-08-24 00:20:22.600 ,7,0,0.,4.8,176.,4.8,0.,4.8,0.,4.8
1981-08-24 00:20:27.400 ,7,0,1.,4.8,152.,4.8,0.,4.8,0.,4.8
1981-08-24 00:20:32.200 ,7,0,1.,4.8,180.,4.8,0.,4.8,0.,4.8
1981-08-24 00:20:37.000 ,7,0,0.,4.8,164.,4.8,0.,4.8,0.,4.8
1981-08-24 00:20:41.800 ,7,0,1.,4.8,164.,4.8,0.,4.8,0.,4.8
1981-08-24 00:20:46.600 ,7,0,1.,4.8,152.,4.8,0.,4.8,0.,4.8
1981-08-24 00:20:51.400 ,7,0,1.,4.8,164.,4.8,0.,4.8,0.,4.8
1981-08-24 00:20:56.200 ,7,0,0.,4.8,160.,4.8,0.,4.8,0.,4.8
1981-08-24 00:21:01.000 ,7,0,0.,4.8,160.,4.8,0.,4.8,0.,4.8
1981-08-24 00:21:05.800 ,7,0,0.,4.8,144.,4.8,0.,4.8,0.,4.8
1981-08-24 00:21:10.600 ,7,0,0.,4.8,156.,4.8,0.,4.8,0.,4.8
1981-08-24 00:21:15.400 ,6,0,1.,4.8,152.,4.8,0.,4.8,0.,4.8
1981-08-24 00:21:20.200 ,6,0,1.,4.8,144.,4.8,0.,4.8,0.,4.8
1981-08-24 00:21:25.000 ,6,0,0.,4.8,164.,4.8,0.,4.8,0.,4.8
1981-08-24 00:21:29.800 ,6,0,0.,4.8,168.,4.8,0.,4.8,0.,4.8
1981-08-24 00:21:34.600 ,6,0,0.,4.8,148.,4.8,0.,4.8,0.,4.8
1981-08-24 00:21:39.400 ,5,0,1.,4.8,148.,4.8,0.,4.8,0.,4.8
1981-08-24 00:21:44.200 ,5,0,2.,4.8,152.,4.8,0.,4.8,0.,4.8
1981-08-24 00:21:49.000 ,5,0,0.,4.8,136.,4.8,0.,4.8,0.,4.8
1981-08-24 00:21:53.800 ,5,0,0.,4.8,156.,4.8,0.,4.8,0.,4.8
1981-08-24 00:21:58.600 ,5,0,0.,4.8,176.,4.8,0.,4.8,0.,4.8
1981-08-24 00:22:03.400 ,4,0,1.,4.8,168.,4.8,0.,4.8,0.,4.8
1981-08-24 00:22:08.200 ,4,0,1.,4.8,156.,4.8,0.,4.8,0.,4.8
1981-08-24 00:22:13.000 ,4,0,0.,4.8,148.,4.8,0.,4.8,0.,4.8
1981-08-24 00:22:17.800 ,4,0,0.,4.8,160.,4.8,0.,4.8,0.,4.8
1981-08-24 00:22:22.600 ,4,0,1.,4.8,144.,4.8,0.,4.8,0.,4.8
1981-08-24 00:22:27.400 ,3,0,2.,4.8,164.,4.8,0.,4.8,0.,4.8
1981-08-24 00:22:32.200 ,3,0,1.,4.8,164.,4.8,0.,4.8,0.,4.8
1981-08-24 00:22:37.000 ,3,0,2.,4.8,164.,4.8,0.,4.8,0.,4.8
1981-08-24 00:22:41.800 ,3,0,1.,4.8,164.,4.8,0.,4.8,0.,4.8
1981-08-24 00:22:46.600 ,3,0,0.,4.8,160.,4.8,0.,4.8,0.,4.8
1981-08-24 00:22:51.400 ,2,0,3.,4.8,156.,4.8,0.,4.8,0.,4.8
1981-08-24 00:22:56.200 ,2,0,1.,4.8,136.,4.8,0.,4.8,0.,4.8
1981-08-24 00:23:01.000 ,2,0,1.,4.8,144.,4.8,0.,4.8,0.,4.8
1981-08-24 00:23:05.800 ,2,0,2.,4.8,156.,4.8,0.,4.8,0.,4.8
1981-08-24 00:23:10.600 ,2,0,3.,4.8,152.,4.8,0.,4.8,0.,4.8
1981-08-24 00:23:15.400 ,1,0,2.,4.8,132.,4.8,0.,4.8,0.,4.8
1981-08-24 00:23:20.200 ,1,0,1.,4.8,168.,4.8,0.,4.8,0.,4.8
1981-08-24 00:23:25.000 ,1,0,0.,4.8,152.,4.8,0.,4.8,0.,4.8
1981-08-24 00:23:29.800 ,1,0,1.,4.8,156.,4.8,0.,4.8,0.,4.8
1981-08-24 00:23:34.600 ,1,0,0.,4.8,160.,4.8,0.,4.8,0.,4.8
1981-08-24 00:23:39.400 ,0,0,0.,4.8,148.,4.8,0.,4.8,0.,4.8
1981-08-24 00:23:44.200 ,0,0,2.,4.8,168.,4.8,0.,4.8,0.,4.8
1981-08-24 00:23:49.000 ,0,0,2.,4.8,156.,4.8,0.,4.8,0.,4.8
1981-08-24 00:23:53.800 ,0,0,1.,4.8,164.,4.8,0.,4.8,0.,4.8
1981-08-24 00:23:58.600 ,0,0,1.,4.8,156.,4.8,0.,4.8,0.,4.8
1981-08-24 00:24:03.400 ,0,0,2.,4.8,172.,4.8,0.,4.8,0.,4.8
1981-08-24 00:24:08.200 ,0,0,1.,4.8,172.,4.8,0.,4.8,0.,4.8
1981-08-24 00:24:13.000 ,0,0,2.,4.8,144.,4.8,0.,4.8,0.,4.8
1981-08-24 00:24:17.800 ,0,0,1.,4.8,156.,4.8,0.,4.8,0.,4.8
1981-08-24 00:24:22.600 ,0,0,0.,4.8,164.,4.8,0.,4.8,0.,4.8
1981-08-24 00:24:27.400 ,1,0,0.,4.8,160.,4.8,0.,4.8,0.,4.8
1981-08-24 00:24:32.200 ,1,0,0.,4.8,172.,4.8,0.,4.8,0.,4.8
1981-08-24 00:24:37.000 ,1,0,0.,4.8,156.,4.8,0.,4.8,0.,4.8
1981-08-24 00:24:41.800 ,1,0,0.,4.8,156.,4.8,0.,4.8,0.,4.8
1981-08-24 00:24:46.600 ,1,0,1.,4.8,164.,4.8,0.,4.8,0.,4.8
1981-08-24 00:24:51.400 ,2,0,1.,4.8,180.,4.8,0.,4.8,0.,4.8
1981-08-24 00:24:56.200 ,2,0,0.,4.8,164.,4.8,0.,4.8,0.,4.8
1981-08-24 00:25:01.000 ,2,0,0.,4.8,172.,4.8,0.,4.8,0.,4.8
1981-08-24 00:25:05.800 ,2,0,1.,4.8,148.,4.8,0.,4.8,0.,4.8
1981-08-24 00:25:10.600 ,2,0,2.,4.8,168.,4.8,0.,4.8,0.,4.8
1981-08-24 00:25:15.400 ,3,0,1.,4.8,160.,4.8,0.,4.8,0.,4.8
1981-08-24 00:25:20.200 ,3,0,0.,4.8,168.,4.8,0.,4.8,0.,4.8
1981-08-24 00:25:25.000 ,3,0,0.,4.8,168.,4.8,0.,4.8,0.,4.8
1981-08-24 00:25:29.800 ,3,0,2.,4.8,144.,4.8,0.,4.8,0.,4.8
1981-08-24 00:25:34.600 ,3,0,1.,4.8,152.,4.8,0.,4.8,0.,4.8
1981-08-24 00:25:39.400 ,4,0,0.,4.8,160.,4.8,0.,4.8,0.,4.8
1981-08-24 00:25:44.200 ,4,0,0.,4.8,152.,4.8,0.,4.8,0.,4.8
1981-08-24 00:25:49.000 ,4,0,1.,4.8,176.,4.8,0.,4.8,0.,4.8
1981-08-24 00:25:53.800 ,4,0,0.,4.8,212.,4.8,0.,4.8,0.,4.8
1981-08-24 00:25:58.600 ,4,0,1.,4.8,132.,4.8,0.,4.8,0.,4.8
1981-08-24 00:26:03.400 ,5,0,2.,4.8,184.,4.8,0.,4.8,0.,4.8
1981-08-24 00:26:08.200 ,5,0,0.,4.8,180.,4.8,0.,4.8,0.,4.8
1981-08-24 00:26:13.000 ,5,0,4.,4.8,172.,4.8,0.,4.8,0.,4.8
1981-08-24 00:26:17.800 ,5,0,0.,4.8,164.,4.8,0.,4.8,0.,4.8
1981-08-24 00:26:22.600 ,5,0,1.,4.8,140.,4.8,0.,4.8,0.,4.8
1981-08-24 00:26:27.400 ,6,0,1.,4.8,172.,4.8,0.,4.8,0.,4.8
1981-08-24 00:26:32.200 ,6,0,2.,4.8,172.,4.8,0.,4.8,0.,4.8
1981-08-24 00:26:37.000 ,6,0,0.,4.8,160.,4.8,0.,4.8,0.,4.8
1981-08-24 00:26:41.800 ,6,0,0.,4.8,148.,4.8,0.,4.8,0.,4.8
1981-08-24 00:26:46.600 ,6,0,1.,4.8,160.,4.8,0.,4.8,0.,4.8
1981-08-24 00:26:51.400 ,7,0,0.,4.8,156.,4.8,0.,4.8,0.,4.8
1981-08-24 00:26:56.200 ,7,0,1.,4.8,152.,4.8,0.,4.8,0.,4.8
1981-08-24 00:27:01.000 ,7,0,0.,4.8,164.,4.8,0.,4.8,0.,4.8
1981-08-24 00:27:05.800 ,7,0,0.,4.8,164.,4.8,0.,4.8,1.,4.8
1981-08-24 00:27:10.600 ,7,0,2.,4.8,164.,4.8,0.,4.8,0.,4.8
1981-08-24 00:27:15.400 ,7,0,1.,4.8,164.,4.8,0.,4.8,0.,4.8
1981-08-24 00:27:20.200 ,7,0,1.,4.8,152.,4.8,0.,4.8,0.,4.8
1981-08-24 00:27:25.000 ,7,0,0.,4.8,164.,4.8,0.,4.8,0.,4.8
1981-08-24 00:27:29.800 ,7,0,2.,4.8,156.,4.8,0.,4.8,0.,4.8
1981-08-24 00:27:34.600 ,7,0,2.,4.8,160.,4.8,0.,4.8,0.,4.8
1981-08-24 00:27:39.400 ,7,0,0.,4.8,176.,4.8,0.,4.8,0.,4.8
1981-08-24 00:27:44.200 ,7,0,3.,4.8,152.,4.8,0.,4.8,0.,4.8
1981-08-24 00:27:49.000 ,7,0,0.,4.8,176.,4.8,0.,4.8,0.,4.8
1981-08-24 00:27:53.800 ,7,0,1.,4.8,144.,4.8,0.,4.8,0.,4.8
1981-08-24 00:27:58.600 ,7,0,0.,4.8,140.,4.8,0.,4.8,0.,4.8
1981-08-24 00:28:03.400 ,6,0,2.,4.8,140.,4.8,0.,4.8,0.,4.8
1981-08-24 00:28:08.200 ,6,0,4.,4.8,140.,4.8,0.,4.8,0.,4.8
1981-08-24 00:28:13.000 ,6,0,1.,4.8,148.,4.8,0.,4.8,0.,4.8
1981-08-24 00:28:17.800 ,6,0,0.,4.8,160.,4.8,0.,4.8,0.,4.8
1981-08-24 00:28:22.600 ,6,0,0.,4.8,160.,4.8,0.,4.8,0.,4.8
1981-08-24 00:28:27.400 ,6,0,1.,4.8,172.,4.8,0.,4.8,0.,4.8
1981-08-24 00:28:32.200 ,6,0,1.,4.8,144.,4.8,0.,4.8,0.,4.8
1981-08-24 00:28:37.000 ,6,0,0.,4.8,148.,4.8,0.,4.8,0.,4.8
1981-08-24 00:28:41.800 ,6,0,0.,4.8,184.,4.8,0.,4.8,0.,4.8
1981-08-24 00:28:46.600 ,6,0,1.,4.8,180.,4.8,0.,4.8,0.,4.8
1981-08-24 00:28:51.400 ,5,0,1.,4.8,176.,4.8,0.,4.8,0.,4.8
1981-08-24 00:28:56.200 ,5,0,1.,4.8,188.,4.8,0.,4.8,0.,4.8
1981-08-24 00:29:01.000 ,5,0,0.,4.8,172.,4.8,0.,4.8,0.,4.8
1981-08-24 00:29:05.800 ,5,0,0.,4.8,172.,4.8,0.,4.8,0.,4.8
1981-08-24 00:29:10.600 ,5,0,1.,4.8,152.,4.8,0.,4.8,0.,4.8
1981-08-24 00:29:15.400 ,5,0,1.,4.8,168.,4.8,0.,4.8,0.,4.8
1981-08-24 00:29:20.200 ,5,0,1.,4.8,180.,4.8,0.,4.8,0.,4.8
1981-08-24 00:29:25.000 ,5,0,0.,4.8,188.,4.8,0.,4.8,0.,4.8
1981-08-24 00:29:29.800 ,5,0,5.,4.8,164.,4.8,0.,4.8,0.,4.8
1981-08-24 00:29:34.600 ,5,0,2.,4.8,172.,4.8,0.,4.8,0.,4.8
1981-08-24 00:29:39.400 ,4,0,5.,4.8,180.,4.8,0.,4.8,0.,4.8
1981-08-24 00:29:44.200 ,4,0,1.,4.8,164.,4.8,0.,4.8,0.,4.8
1981-08-24 00:29:49.000 ,4,0,0.,4.8,164.,4.8,0.,4.8,0.,4.8
1981-08-24 00:29:53.800 ,4,0,1.,4.8,164.,4.8,0.,4.8,0.,4.8
1981-08-24 00:29:58.600 ,4,0,1.,4.8,160.,4.8,0.,4.8,0.,4.8
1981-08-24 00:30:03.400 ,4,0,1.,4.8,156.,4.8,0.,4.8,0.,4.8
1981-08-24 00:30:08.200 ,4,0,0.,4.8,164.,4.8,0.,4.8,0.,4.8
1981-08-24 00:30:13.000 ,4,0,1.,4.8,160.,4.8,0.,4.8,0.,4.8
1981-08-24 00:30:17.800 ,4,0,0.,4.8,160.,4.8,0.,4.8,0.,4.8
1981-08-24 00:30:22.600 ,4,0,3.,4.8,152.,4.8,0.,4.8,1.,4.8
1981-08-24 00:30:27.400 ,3,0,1.,4.8,184.,4.8,0.,4.8,0.,4.8
1981-08-24 00:30:32.190 ,3,0,1.,4.8,156.,4.8,0.,4.8,0.,4.8
1981-08-24 00:30:36.990 ,3,0,0.,4.8,156.,4.8,0.,4.8,0.,4.8
1981-08-24 00:30:41.790 ,3,0,1.,4.8,160.,4.8,0.,4.8,0.,4.8
1981-08-24 00:30:46.590 ,3,0,0.,4.8,188.,4.8,0.,4.8,0.,4.8
1981-08-24 00:30:51.400 ,3,0,0.,4.8,172.,4.8,0.,4.8,0.,4.8
1981-08-24 00:30:56.190 ,3,0,1.,4.8,148.,4.8,0.,4.8,0.,4.8
1981-08-24 00:31:00.990 ,3,0,1.,4.8,168.,4.8,0.,4.8,0.,4.8
1981-08-24 00:31:05.800 ,3,0,1.,4.8,196.,4.8,0.,4.8,0.,4.8
1981-08-24 00:31:10.590 ,3,0,0.,4.8,172.,4.8,0.,4.8,0.,4.8
1981-08-24 00:31:15.400 ,2,0,2.,4.8,176.,4.8,0.,4.8,0.,4.8
1981-08-24 00:31:20.190 ,2,0,1.,4.8,168.,4.8,0.,4.8,0.,4.8
1981-08-24 00:31:24.990 ,2,0,2.,4.8,176.,4.8,0.,4.8,0.,4.8
1981-08-24 00:31:29.790 ,2,0,3.,4.8,152.,4.8,0.,4.8,0.,4.8
1981-08-24 00:31:34.590 ,2,0,0.,4.8,152.,4.8,0.,4.8,0.,4.8
1981-08-24 00:31:39.400 ,2,0,0.,4.8,168.,4.8,0.,4.8,0.,4.8
1981-08-24 00:31:44.190 ,2,0,0.,4.8,152.,4.8,0.,4.8,0.,4.8
1981-08-24 00:31:48.990 ,2,0,0.,4.8,152.,4.8,0.,4.8,0.,4.8